TimeEST,TemperatureF,Dew PointF,Humidity,Sea Level PressureIn,VisibilityMPH,Wind Direction,Wind SpeedMPH,Gust SpeedMPH,PrecipitationIn,Events,Conditions,WindDirDegrees,DateUTC
12:14 AM,33.8,32.0,93,29.48,2.5,East,8.1,-,N/A,Snow,Light Snow,80,2013-02-27 05:14:00
12:34 AM,33.8,32.0,93,29.47,4.0,East,8.1,-,N/A,Snow,Light Snow,80,2013-02-27 05:34:00
12:55 AM,33.8,32.0,93,29.46,5.0,East,8.1,-,N/A,Snow,Light Snow,80,2013-02-27 05:55:00
1:14 AM,34.0,32.0,92,29.46,10.0,East,6.9,-,N/A,,Overcast,80,2013-02-27 06:14:00
1:35 AM,34.2,32.0,92,29.46,10.0,East,10.4,-,N/A,,Overcast,100,2013-02-27 06:35:00
1:55 AM,34.2,32.0,92,29.46,10.0,East,10.4,-,N/A,,Overcast,100,2013-02-27 06:55:00
2:14 AM,34.0,32.0,92,29.46,10.0,East,9.2,-,N/A,,Overcast,90,2013-02-27 07:14:00
2:35 AM,34.2,32.0,92,29.46,7.0,East,6.9,-,N/A,Snow,Light Snow,90,2013-02-27 07:35:00
2:54 AM,34.0,32.0,92,29.45,4.0,East,8.1,-,N/A,Snow,Light Snow,80,2013-02-27 07:54:00
3:14 AM,33.8,32.0,93,29.44,3.0,East,8.1,-,N/A,Snow,Light Snow,100,2013-02-27 08:14:00
3:35 AM,33.8,31.8,92,29.43,2.5,East,8.1,-,N/A,Snow,Light Snow,80,2013-02-27 08:35:00
3:54 AM,33.4,31.8,94,29.43,2.0,East,5.8,-,N/A,Snow,Light Snow,80,2013-02-27 08:54:00
4:14 AM,33.4,31.8,94,29.43,1.5,ENE,5.8,-,N/A,Snow,Light Snow,70,2013-02-27 09:14:00
4:35 AM,33.4,31.8,94,29.43,1.5,ENE,4.6,-,N/A,Snow,Light Snow,70,2013-02-27 09:35:00
4:54 AM,33.4,32.0,94,29.44,1.8,ENE,3.5,-,N/A,Snow,Light Snow,70,2013-02-27 09:54:00
5:14 AM,33.3,31.8,94,29.44,2.0,ENE,3.5,-,N/A,Snow,Light Snow,70,2013-02-27 10:14:00
5:34 AM,33.3,32.0,95,29.44,4.0,East,3.5,-,N/A,Snow,Light Snow,80,2013-02-27 10:34:00
5:54 AM,33.4,32.0,94,29.44,3.0,East,3.5,-,N/A,Snow,Light Snow,80,2013-02-27 10:54:00
6:15 AM,33.4,32.0,94,29.44,5.0,East,3.5,-,N/A,Snow,Light Snow,80,2013-02-27 11:15:00
6:34 AM,33.4,32.0,94,29.45,7.0,Calm,Calm,-,N/A,,Overcast,0,2013-02-27 11:34:00
6:54 AM,33.4,32.0,94,29.45,10.0,Calm,Calm,-,N/A,,Overcast,0,2013-02-27 11:54:00
7:15 AM,33.4,32.0,94,29.46,7.0,Calm,Calm,-,N/A,,Overcast,0,2013-02-27 12:15:00
7:34 AM,33.3,32.0,95,29.46,2.5,Calm,Calm,-,N/A,,Overcast,0,2013-02-27 12:34:00
7:54 AM,33.4,32.0,94,29.47,1.0,Calm,Calm,-,N/A,,Overcast,0,2013-02-27 12:54:00
8:14 AM,33.4,32.0,94,29.47,0.8,Calm,Calm,-,N/A,Snow,Light Snow,0,2013-02-27 13:14:00
8:34 AM,33.4,32.0,94,29.48,0.5,Calm,Calm,-,N/A,,Overcast,0,2013-02-27 13:34:00
8:55 AM,33.4,32.0,94,29.48,0.2,Calm,Calm,-,N/A,,Overcast,0,2013-02-27 13:55:00
9:14 AM,33.8,32.0,93,29.48,0.2,SE,3.5,-,N/A,,Overcast,140,2013-02-27 14:14:00
9:34 AM,33.8,32.2,94,29.48,0.2,SSE,4.6,-,N/A,,Overcast,150,2013-02-27 14:34:00
10:14 AM,33.8,32.4,94,29.49,1.8,South,6.9,-,N/A,,Light Drizzle,180,2013-02-27 15:14:00
10:34 AM,34.2,32.5,94,29.49,3.0,SSW,5.8,-,N/A,,Overcast,200,2013-02-27 15:34:00
10:54 AM,34.3,32.9,94,29.49,4.0,SSW,6.9,-,N/A,,Overcast,200,2013-02-27 15:54:00
11:14 AM,34.7,32.9,93,29.49,7.0,SSW,5.8,-,N/A,,Overcast,210,2013-02-27 16:14:00
11:35 AM,34.7,32.9,93,29.50,7.0,SSW,4.6,-,N/A,,Overcast,200,2013-02-27 16:35:00
11:54 AM,34.7,32.5,92,29.50,7.0,SSW,5.8,-,N/A,,Overcast,200,2013-02-27 16:54:00
12:15 PM,34.9,32.5,91,29.51,7.0,SSW,4.6,-,N/A,,Overcast,200,2013-02-27 17:15:00
12:35 PM,34.9,32.5,91,29.50,7.0,SSW,5.8,-,N/A,,Overcast,200,2013-02-27 17:35:00
12:54 PM,34.9,32.4,91,29.50,7.0,SSW,6.9,-,N/A,,Overcast,200,2013-02-27 17:54:00
1:15 PM,34.9,32.4,91,29.50,7.0,SW,5.8,-,N/A,,Overcast,220,2013-02-27 18:15:00
1:34 PM,34.9,32.2,90,29.50,10.0,SSW,4.6,-,N/A,,Overcast,210,2013-02-27 18:34:00
1:54 PM,34.9,32.2,90,29.50,10.0,SW,8.1,-,N/A,,Overcast,220,2013-02-27 18:54:00
2:15 PM,34.9,32.0,89,29.50,10.0,SW,5.8,-,N/A,,Overcast,220,2013-02-27 19:15:00
2:34 PM,35.1,32.0,89,29.49,10.0,SW,5.8,-,N/A,,Overcast,220,2013-02-27 19:34:00
2:54 PM,35.1,32.0,89,29.50,10.0,SW,5.8,-,N/A,,Overcast,220,2013-02-27 19:54:00
3:14 PM,35.1,32.0,89,29.51,10.0,SW,4.6,-,N/A,,Overcast,220,2013-02-27 20:14:00
3:34 PM,35.1,32.0,89,29.51,10.0,SW,5.8,-,N/A,,Overcast,220,2013-02-27 20:34:00
3:55 PM,35.1,32.0,89,29.51,7.0,SW,6.9,-,N/A,,Overcast,220,2013-02-27 20:55:00
4:14 PM,35.1,32.0,89,29.51,7.0,SW,4.6,-,N/A,Rain,Light Rain,220,2013-02-27 21:14:00
4:34 PM,34.9,32.0,89,29.52,5.0,SSW,3.5,-,N/A,Rain,Light Rain,210,2013-02-27 21:34:00
4:55 PM,34.7,32.0,90,29.52,4.0,SSW,3.5,-,N/A,Rain,Light Rain,210,2013-02-27 21:55:00
5:14 PM,34.3,32.0,91,29.52,3.0,SSW,4.6,-,N/A,Rain,Light Rain,210,2013-02-27 22:14:00
5:34 PM,34.3,32.0,91,29.52,3.0,South,3.5,-,N/A,Rain,Light Rain,190,2013-02-27 22:34:00
5:55 PM,34.0,32.0,92,29.53,3.0,SSW,3.5,-,N/A,Rain,Rain,200,2013-02-27 22:55:00
6:14 PM,34.0,32.0,92,29.53,3.0,SSW,4.6,-,N/A,Rain,Rain,200,2013-02-27 23:14:00
6:35 PM,33.8,32.0,93,29.53,4.0,SSW,4.6,-,N/A,Rain,Light Rain,200,2013-02-27 23:35:00
6:54 PM,33.8,32.0,93,29.54,4.0,South,4.6,-,N/A,Rain,Light Rain,170,2013-02-27 23:54:00
7:14 PM,33.8,32.0,93,29.54,3.0,SSW,4.6,-,N/A,Rain,Light Rain,200,2013-02-28 00:14:00
7:35 PM,33.8,32.0,93,29.54,2.5,South,4.6,-,N/A,,Drizzle,180,2013-02-28 00:35:00
7:54 PM,33.6,32.0,94,29.54,2.5,South,4.6,-,N/A,Rain,Rain,180,2013-02-28 00:54:00
8:14 PM,33.4,32.0,94,29.54,1.8,SSW,3.5,-,N/A,,Overcast,210,2013-02-28 01:14:00
8:35 PM,33.4,32.0,94,29.54,1.5,Calm,Calm,-,N/A,,Overcast,0,2013-02-28 01:35:00
9:14 PM,33.4,32.0,94,29.54,1.8,SW,3.5,-,N/A,,Overcast,220,2013-02-28 02:14:00
9:35 PM,33.3,32.0,95,29.54,1.8,Calm,Calm,-,N/A,,Overcast,0,2013-02-28 02:35:00
9:54 PM,33.3,32.0,95,29.54,1.8,WSW,3.5,-,N/A,,Overcast,240,2013-02-28 02:54:00
10:14 PM,33.3,32.0,95,29.54,1.5,Calm,Calm,-,N/A,Snow,Light Snow,0,2013-02-28 03:14:00
10:35 PM,33.1,32.0,96,29.54,1.5,Calm,Calm,-,N/A,Snow,Light Snow,0,2013-02-28 03:35:00
10:54 PM,33.1,32.0,96,29.53,1.5,WSW,3.5,-,N/A,Snow,Light Snow,240,2013-02-28 03:54:00
11:14 PM,33.4,32.0,94,29.53,1.5,WSW,4.6,-,N/A,Snow,Light Snow,250,2013-02-28 04:14:00
11:35 PM,33.8,32.2,94,29.53,1.5,West,3.5,-,N/A,,Overcast,270,2013-02-28 04:35:00
11:54 PM,33.8,32.2,94,29.53,0.8,West,3.5,-,N/A,,Overcast,270,2013-02-28 04:54:00